Regional Weather Roundup
Issued by NWS Wakefield, VA

Home | Current Version | Previous Version | Text Only | Print | Product List | Glossary Off
Versions: 1 2 3 4 5 6 7 8 9 10 11 12 13 14 15 16 17 18 19 20 21 22 23 24 25 26 27 28 29 30 31 32 33 34 35 36 37 38 39 40 41 42 43 44 45 46 47 48 49 50

271
ASUS41 KAKQ 160815
RWRAKQ

REGIONAL WEATHER ROUNDUP
NATIONAL WEATHER SERVICE WAKEFIELD VA
400 AM EDT WED AUG 16 2017

Note: "fair" indicates few or no clouds below 12,000 feet with no
significant weather and/or obstructions to visibility. * = Denotes
station may not report precipitation (e.g., rain,snow,etc.),
thunder or fog.

VAZ042-051-052>054-056-160900-
NORTHERN VIRGINIA

CITY           SKY/WX    TMP DP  RH WIND       PRES   REMARKS
WASH NATIONAL  PTCLDY    73  73 100 N6        29.94S
DULLES         PTCLDY    66  66 100 CALM      29.95S FOG
FORT BELVOIR   CLEAR     68  67  97 CALM      29.94R FOG
QUANTICO       CLEAR     72  71  97 NW7       29.94S
FREDERICKSBRG* PTCLDY    70  70 100 CALM      29.94R
STAFFORD*      FOG       66  66 100 CALM      29.98S VSB 1/4
WARRENTON      FOG       66  64  91 CALM      29.94S VSB 3/4
CULPEPER*      FOG       69  69 100 CALM      29.96S VSB 3/4
MANASSAS*      CLEAR     66  66 100 CALM      29.95S
LEESBURG*      CLEAR     68  68 100 CALM      29.96S FOG
WINCHESTER     FOG       64  64 100 CALM      29.97S VSB 1/4
FRONT ROYAL*   MOSUNNY   68  68 100 S3        29.96S
LURAY*         CLOUDY    68  68 100 CALM      30.00R FOG
$$

VAZ048-049-060>072-079>083-160900-
CENTRAL AND SOUTH CENTRAL VIRGINIA

CITY           SKY/WX    TMP DP  RH WIND       PRES   REMARKS
RICHMOND       FOG       73  73 100 N3        29.93S VSB 3/4
CHESTERFIELD*  CLOUDY    73  72  96 NW3       29.94S FOG
PETERSBURG*    CLOUDY    73  73 100 N5        29.95R FOG
HANOVER        FOG       73  71  93 CALM      29.95R VSB 1/4
TAPPAHANNOCK*  FOG      N/A N/A N/A CALM      29.94S VSB 1/4
QUINTON*       CLOUDY    73  73 100 CALM      29.92S FOG
CHARLOTTSVILLE FOG       72  71  97 CALM      29.96S VSB 1/4
GORDONSVILLE*  FOG       70  70 100 CALM      29.95S VSB 1
ORANGE*        FOG       66  66 100 CALM      29.95S VSB 1/2
LOUISA*        FOG       66  66 100 CALM      29.95S VSB<1/4
BUMPASS*       CLOUDY    71  71 100 CALM      29.95S VSB 1/4
FARMVILLE*     FOG       75  73  92 N3        29.95S VSB 1/2
CREWE*         CLOUDY    73  69  87 N3        29.95S VSB 1/2
FORT PICKETT*  CLOUDY   N/A N/A N/A N6        29.95S VSB 1/2
CHASE CITY*    FAIR      72  72  99 CALM      29.96S
CLARKSVILLE*   FAIR      73  73 100 CALM      29.95R
SOUTH HILL*    CLEAR     71  71 100 CALM      30.00R
LAWRENCEVILLE* CLOUDY    72  71  97 CALM      29.94R
EMPORIA*       CLOUDY    72  72 100 N3        29.95R
$$

VAZ088>098-160900-
SOUTHEAST VIRGINIA

CITY           SKY/WX    TMP DP  RH WIND       PRES   REMARKS
NORFOLK        PTCLDY    78  75  90 N5        29.91R
VIRGINIA BEACH CLOUDY    75  73  93 CALM      29.90R
NORFOLK NAVAL  CLOUDY    78  75  90 N6        29.92S
WEST POINT*    CLOUDY    72  72  99 CALM      29.93S VSB 1
SALUDA*        PTSUNNY   74  74 100 CALM      29.92S
NEWPORT NEWS   CLOUDY    74  73  97 NE3       29.92R
LANGLEY AFB    MOCLDY    75  75 100 NW6       29.91R
FORT EUSTIS    CLEAR     75  73  95 N3        29.90R
WILLIAMSBURG*  MOCLDY    75  75 100 CALM      29.93S
HR EXEC AP*    CLOUDY    73  72  94 CALM      29.89S
FRANKLIN*      CLOUDY    74  74  98 N3        29.93R
US460-WAKEFLD  CLOUDY    75  75 100 CALM      29.93R
$$

VAZ020-022-025-037-045-160900-
WEST CENTRAL AND SOUTHWEST VIRGINIA

CITY           SKY/WX    TMP DP  RH WIND       PRES   REMARKS
STAUNTON*      CLOUDY    68  67  99 CALM      30.03S FOG
WAYNESBORO*    CLOUDY    67  67 100 CALM      30.02R
HOT SPRINGS VA CLOUDY    64  63  94 NW5       30.15S
LYNCHBURG      PTCLDY    69  69 100 CALM      29.99R FOG
DANVILLE       CLEAR     73  72  96 N3        29.96S
SOUTH BOSTON*  FAIR      72  71  95 CALM      29.96R
MARTINSVILLE   CLEAR     68  67  98 CALM      30.02R FOG
ROANOKE        PTCLDY    71  69  93 CALM      30.02S
BLACKSBURG     PTCLDY    66  65  97 CALM      30.09S FOG
DUBLIN*        PTCLDY    68  64  87 CALM      30.08R
MARION*        CLOUDY    70  66  87 W3        30.12S FOG
HILLSVILLE*    PTCLDY    67  64  87 CALM      30.09R
RICHLANDS*     FOG       67  63  87 CALM      30.11S VSB<1/4
WISE*          CLOUDY    70  70 100 CALM      30.11S
ABINGDON*      FOG       72  72 100 CALM      30.07F VSB 1/4
$$

MDZ021>025-VAZ099-100-160900-
SOUTHERN MARYLAND AND THE DELMARVA PENINSULA

CITY           SKY/WX    TMP DP  RH WIND       PRES   REMARKS
PATUXENT RIVER PTCLDY    74  74 100 NW7       29.93R
BAY BRIDGE APT MOCLDY    73  73 100 NE3       29.93S
LEONARDTOWN    CLOUDY    72  72 100 CALM      29.95R
DOVER          MOCLDY    72  72 100 NW7       29.92R FOG
GEORGETOWN     CLOUDY    74  73  97 CALM      29.93S FOG
EASTON         CLOUDY    74  72  96 N3        29.97S
CAMBRIDGE      CLOUDY    75  73  94 N6        29.93R
SALISBURY      CLOUDY    74  74 100 N3        29.92S FOG
OCEAN CITY     CLOUDY    75  75 100 CALM      29.92S
WALLOPS ISLAND CLOUDY    74  74 100 N5        29.91S
ACCOMACK*        N/A    N/A N/A N/A MISG        N/A
$$

NCZ012>017-030>032-160900-
NORTH CENTRAL AND EASTERN NORTH CAROLINA

CITY           SKY/WX    TMP DP  RH WIND       PRES   REMARKS
ROANOKE RAPIDS FOG       72  72 100 N3        29.93S VSB 1/2
RALEIGH        PTCLDY    76  74  93 CALM      29.95R
ELIZABETH CITY CLOUDY    76  76 100 N9        29.90R
AHOSKIE*       FOG       74  74  99 CALM      29.92R VSB 3/4
EDENTON*       CLOUDY    77  76  94 CALM      29.91R
CURRITUCK*     CLOUDY   N/A N/A N/A N3        29.91R
KILL DEVIL HLS CLEAR     75  75 100 CALM      29.88S
MANTEO         CLEAR     76  75  96 CALM      29.89S
CAPE HATTERAS  CLOUDY    79  77  94 W5        29.88R
TARBORO*       NOT AVBL
GOLDSBORO      FOG       75  73  93 VRB2      29.93R VSB 3/4
WASHINGTON     CLEAR     75  74  97 CALM      29.90S
GREENVILLE     CLEAR     73  73 100 CALM      29.93S
NEW BERN       CLEAR     76  76 100 CALM      29.91R FOG
WILMINGTON     CLEAR     77  76  96 S3        29.89F
$$

VAZ048-160900-
ELSEWHERE

CITY           SKY/WX    TMP DP  RH WIND       PRES   REMARKS
HARRISBURG PA  FOG       69  69 100 CALM      29.95R VSB 1/8
BALTIMORE      FOG       71  71 100 NW5       29.94S VSB 1/8
ANNAPOLIS      CLOUDY    76  76 100 NW5       29.93R
ANDREWS AFB    FOG       70  70 100 CALM      29.94R VSB 1/2
PHILADELPHIA   PTCLDY    72  70  93 VRB3      29.93S
HENDERSON NC   PTCLDY    71  70  98 CALM      29.95S FOG
GREENSBORO     CLEAR     75  74  96 N3        29.97S
ROCKY MOUNT    PTCLDY    73  73 100 CALM      29.93R
$$

VAZ100-160900-
MARINE

STATION/POSITION TIME  TEMP    WIND        PRES    WAVE   SWELL
                       AIR SEA DIR/SP/G            HT/PER HT/PER
                 (UTC) (F)     (DEG/KT/KT) (MB)    (FT/S) (FT/S)
BRANDYWINE LGT   0736   75      30/  7/  8 1013.4R
CAPE MAY NJ      0736   74 77   40/  2/  3 1012.6R
LEWES DE         0736   74 76  260/  2/  3 1012.8R
15NM E FENWICK I 0750   76 76  340/  4/  4 1013.2R   5/ 8   5/ 8
OCEAN-CITY-INLET 0736   76 77  350/  4/  5 1013.4R
WACHAPREAGUE VA  0736   73 80  360/  1/  2 1012.9R
THOMAS POINT MD  0800   75 79  360/  8/ 10   N/A
GOOSES REEF MD   0800   76 78   40/ 10/ 12 1014.2
COVE POINT MD    0736   76     360/  6/  9 1014.0R
SOLOMONS ISLAND  0736   74 80  350/  6/  7   N/A
BISHOPS HEAD MD  0736   75 81   10/  4/  5 1013.4R
PINEY POINT MD   0742           30/  4/  5   N/A
POTOMAC MD       0800   76 80  360/  6/  8 1012.6    0
CAMBRIDGE MD     0736   74 80              1014.2R
LEWISETTA VA     0736   76 81   10/  4/  5 1013.1R
RAPPAHANNOCK LGT 0742           30/  3/  4 1013.6R
STINGRAY PT      0800   77 80  360/  6/  8 1013.4    0
YORK RVR RNG VA  0736   77      20/  8/  9 1013.2S
YORKTOWN VA      0736   75 80  360/  5/  6 1012.7R
JAMESTOWN VA     0800      81  360/  2/  4   N/A
DOMINION TERM VA 0742   76      10/  6/  8 1013.0R
KIPTOPEKE VA     0742      79   20/  4/  5   N/A
CHES BAY BRIDGE  0742   77 78   50/  5/  6 1012.6R
CAPE HENRY VA    0742   76     360/  4/  5   N/A
WILLOUBY STN VA  0742   77     350/  7/  7 1012.8R
S CRANEY ISL VA  0742   78      10/  8/  9 1012.5R
CAPE HENRY BUOY  0800      77                N/A     3/12   2/12
1ST LANDING BUOY 0800   77 78              1012.6    2/ 5
64NM E OF VA BCH 0750   77 79   30/  6/  6 1012.5R   5/11   5/11
DUCK PIER NC     0742   78 75  360/  7/  8 1011.9R
44100 DUCK FRF   0705      80                N/A     4/10   2/11
44056 DUCK FRF   0800      79                N/A     3/ 6   2/11
OREGON INLET NC  0742   80 82  270/  3/  6 1011.8R
HATTERAS NC      0742   78 83  240/  5/  8 1011.8R
DIAMOND SHLS NC  0750   81 83  240/ 12/ 14 1011.3F   3/ 8   3/ 8
CAPE LOOKOUT NC  0800   80     150/  3/  3 1012.1R
$$




USA.gov is the U.S. government's official web portal to all federal, state and local government web resources and services.